Time,TemperatureF,DewpointF,PressureIn,WindDirection,WindDirectionDegrees,WindSpeedMPH,WindSpeedGustMPH,Humidity,HourlyPrecipIn,Conditions,Clouds,dailyrainin,SoftwareType,DateUTC
2013-05-24 00:02:00,45.3,40.1,30.12,NNW,331,7.0,7.0,82,0.00,,,0.00,Wunderground v.1.15,2013-05-24 04:02:00,
2013-05-24 00:07:00,45.4,40.2,30.12,NNW,342,7.0,10.0,82,0.00,,,0.00,Wunderground v.1.15,2013-05-24 04:07:00,
2013-05-24 00:12:00,45.4,40.2,30.12,NNW,342,7.0,10.0,82,0.00,,,0.00,Wunderground v.1.15,2013-05-24 04:12:00,
2013-05-24 00:17:00,45.4,40.2,30.12,North,355,7.0,7.0,82,0.00,,,0.00,Wunderground v.1.15,2013-05-24 04:17:00,
2013-05-24 00:27:00,45.2,39.7,30.12,NNW,336,7.0,7.0,81,0.00,,,0.00,Wunderground v.1.15,2013-05-24 04:27:00,
2013-05-24 00:32:00,44.9,39.4,30.12,North,355,7.0,7.0,81,0.00,,,0.00,Wunderground v.1.15,2013-05-24 04:32:00,
2013-05-24 00:37:00,44.7,39.2,30.13,NNW,342,7.0,7.0,81,0.00,,,0.01,Wunderground v.1.15,2013-05-24 04:37:00,
2013-05-24 00:42:00,44.5,39.3,30.13,NNW,342,6.0,7.0,82,0.00,,,0.01,Wunderground v.1.15,2013-05-24 04:42:00,
2013-05-24 00:47:00,44.2,39.1,30.13,NNW,348,6.0,6.0,82,0.00,,,0.01,Wunderground v.1.15,2013-05-24 04:47:00,
2013-05-24 00:52:00,43.9,39.1,30.13,NNW,338,6.0,6.0,83,0.00,,,0.01,Wunderground v.1.15,2013-05-24 04:52:00,
2013-05-24 00:57:00,43.7,38.9,30.13,NNW,335,6.0,6.0,83,0.00,,,0.01,Wunderground v.1.15,2013-05-24 04:57:00,
2013-05-24 01:07:00,43.4,38.9,30.13,NNW,336,5.0,5.0,84,0.00,,,0.01,Wunderground v.1.15,2013-05-24 05:07:00,
2013-05-24 01:12:00,43.3,38.8,30.13,NNW,335,5.0,6.0,84,0.00,,,0.01,Wunderground v.1.15,2013-05-24 05:12:00,
2013-05-24 01:17:00,43.2,39.0,30.13,NNW,335,5.0,6.0,85,0.00,,,0.01,Wunderground v.1.15,2013-05-24 05:17:00,
2013-05-24 01:22:00,43.2,39.0,30.13,NNW,343,6.0,6.0,85,0.00,,,0.01,Wunderground v.1.15,2013-05-24 05:22:00,
2013-05-24 01:27:00,43.2,39.0,30.13,NNW,329,5.0,5.0,85,0.00,,,0.01,Wunderground v.1.15,2013-05-24 05:27:00,
2013-05-24 01:32:00,43.1,38.9,30.14,NW,323,5.0,5.0,85,0.00,,,0.01,Wunderground v.1.15,2013-05-24 05:32:00,
2013-05-24 01:37:00,43.1,38.9,30.14,NW,319,5.0,5.0,85,0.00,,,0.01,Wunderground v.1.15,2013-05-24 05:37:00,
2013-05-24 01:47:00,43.1,39.2,30.14,NNW,330,6.0,6.0,86,0.00,,,0.01,Wunderground v.1.15,2013-05-24 05:47:00,
2013-05-24 01:52:00,43.1,39.2,30.14,NNW,331,6.0,6.0,86,0.00,,,0.01,Wunderground v.1.15,2013-05-24 05:52:00,
2013-05-24 01:57:00,43.0,39.1,30.14,NNW,333,6.0,6.0,86,0.00,,,0.01,Wunderground v.1.15,2013-05-24 05:57:00,
2013-05-24 02:07:00,42.8,38.9,30.14,NW,318,5.0,6.0,86,0.00,,,0.01,Wunderground v.1.15,2013-05-24 06:07:00,
2013-05-24 02:12:00,42.8,38.9,30.14,NW,326,5.0,6.0,86,0.00,,,0.01,Wunderground v.1.15,2013-05-24 06:12:00,
2013-05-24 02:17:00,42.6,38.7,30.14,NW,316,4.0,4.0,86,0.00,,,0.01,Wunderground v.1.15,2013-05-24 06:17:00,
2013-05-24 02:22:00,42.5,38.9,30.14,NW,315,4.0,4.0,87,0.00,,,0.01,Wunderground v.1.15,2013-05-24 06:22:00,
2013-05-24 02:27:00,42.4,38.8,30.14,NW,323,4.0,5.0,87,0.00,,,0.01,Wunderground v.1.15,2013-05-24 06:27:00,
2013-05-24 02:32:00,42.4,38.8,30.14,NW,319,4.0,5.0,87,0.00,,,0.01,Wunderground v.1.15,2013-05-24 06:32:00,
2013-05-24 02:37:00,42.3,38.7,30.14,NNW,341,4.0,4.0,87,0.00,,,0.01,Wunderground v.1.15,2013-05-24 06:37:00,
2013-05-24 02:42:00,42.1,38.5,30.14,NNW,329,3.0,4.0,87,0.00,,,0.01,Wunderground v.1.15,2013-05-24 06:42:00,
2013-05-24 02:47:00,42.0,38.4,30.14,NW,323,3.0,4.0,87,0.00,,,0.01,Wunderground v.1.15,2013-05-24 06:47:00,
2013-05-24 02:52:00,41.9,38.6,30.14,NW,306,3.0,4.0,88,0.00,,,0.01,Wunderground v.1.15,2013-05-24 06:52:00,
2013-05-24 02:57:00,41.9,38.6,30.14,NW,311,3.0,5.0,88,0.00,,,0.01,Wunderground v.1.15,2013-05-24 06:57:00,
2013-05-24 03:07:00,41.8,38.5,30.15,NW,321,3.0,3.0,88,0.00,,,0.01,Wunderground v.1.15,2013-05-24 07:07:00,
2013-05-24 03:12:00,41.7,38.4,30.15,NW,321,3.0,3.0,88,0.00,,,0.01,Wunderground v.1.15,2013-05-24 07:12:00,
2013-05-24 03:17:00,41.6,38.6,30.15,NW,319,4.0,4.0,89,0.00,,,0.01,Wunderground v.1.15,2013-05-24 07:17:00,
2013-05-24 03:22:00,41.5,38.2,30.15,NW,324,3.0,4.0,88,0.00,,,0.01,Wunderground v.1.15,2013-05-24 07:22:00,
2013-05-24 03:27:00,41.5,38.5,30.15,NW,312,3.0,3.0,89,0.00,,,0.01,Wunderground v.1.15,2013-05-24 07:27:00,
2013-05-24 03:32:00,41.5,38.5,30.15,NW,310,3.0,3.0,89,0.00,,,0.01,Wunderground v.1.15,2013-05-24 07:32:00,
2013-05-24 03:37:00,41.5,38.5,30.16,NW,309,3.0,3.0,89,0.00,,,0.01,Wunderground v.1.15,2013-05-24 07:37:00,
2013-05-24 03:47:00,41.4,38.4,30.16,NW,307,4.0,4.0,89,0.00,,,0.01,Wunderground v.1.15,2013-05-24 07:47:00,
2013-05-24 03:52:00,41.5,38.8,30.16,NW,315,4.0,4.0,90,0.00,,,0.01,Wunderground v.1.15,2013-05-24 07:52:00,
2013-05-24 03:57:00,41.7,39.0,30.16,NW,314,4.0,4.0,90,0.00,,,0.01,Wunderground v.1.15,2013-05-24 07:57:00,
2013-05-24 04:07:00,41.9,39.2,30.17,NW,315,3.0,3.0,90,0.00,,,0.01,Wunderground v.1.15,2013-05-24 08:07:00,
2013-05-24 04:17:00,42.2,39.5,30.17,NW,313,3.0,3.0,90,0.00,,,0.01,Wunderground v.1.15,2013-05-24 08:17:00,
2013-05-24 04:22:00,42.4,40.0,30.17,NW,315,3.0,4.0,91,0.00,,,0.01,Wunderground v.1.15,2013-05-24 08:22:00,
2013-05-24 04:27:00,42.6,40.2,30.17,NW,320,4.0,4.0,91,0.00,,,0.01,Wunderground v.1.15,2013-05-24 08:27:00,
2013-05-24 04:32:00,42.7,40.3,30.17,NW,321,3.0,4.0,91,0.00,,,0.02,Wunderground v.1.15,2013-05-24 08:32:00,
2013-05-24 04:37:00,42.9,40.5,30.18,NW,321,3.0,4.0,91,0.00,,,0.02,Wunderground v.1.15,2013-05-24 08:37:00,
2013-05-24 04:42:00,43.1,40.7,30.18,NNW,333,4.0,4.0,91,0.00,,,0.02,Wunderground v.1.15,2013-05-24 08:42:00,
2013-05-24 04:47:00,43.2,40.5,30.18,NNW,336,4.0,4.0,90,0.00,,,0.02,Wunderground v.1.15,2013-05-24 08:47:00,
2013-05-24 04:52:00,43.3,40.8,30.18,NNW,337,3.0,4.0,91,0.00,,,0.02,Wunderground v.1.15,2013-05-24 08:52:00,
2013-05-24 04:57:00,43.3,40.6,30.18,NNW,340,3.0,3.0,90,0.00,,,0.02,Wunderground v.1.15,2013-05-24 08:57:00,
2013-05-24 05:07:00,43.4,40.7,30.18,NNW,337,3.0,3.0,90,0.00,,,0.02,Wunderground v.1.15,2013-05-24 09:07:00,
2013-05-24 05:12:00,43.6,40.9,30.19,North,355,3.0,3.0,90,0.00,,,0.02,Wunderground v.1.15,2013-05-24 09:12:00,
2013-05-24 05:17:00,43.6,40.9,30.19,North,351,2.0,2.0,90,0.00,,,0.02,Wunderground v.1.15,2013-05-24 09:17:00,
2013-05-24 05:22:00,43.8,41.3,30.19,NE,36,2.0,3.0,91,0.00,,,0.02,Wunderground v.1.15,2013-05-24 09:22:00,
2013-05-24 05:27:00,43.9,41.4,30.20,NE,47,3.0,3.0,91,0.00,,,0.02,Wunderground v.1.15,2013-05-24 09:27:00,
2013-05-24 05:32:00,43.8,41.1,30.20,NE,36,3.0,5.0,90,0.00,,,0.02,Wunderground v.1.15,2013-05-24 09:32:00,
2013-05-24 05:37:00,43.3,40.0,30.20,NNE,32,5.0,9.0,88,0.00,,,0.02,Wunderground v.1.15,2013-05-24 09:37:00,
2013-05-24 05:42:00,43.2,39.3,30.20,NNE,24,7.0,9.0,86,0.00,,,0.02,Wunderground v.1.15,2013-05-24 09:42:00,
2013-05-24 05:47:00,43.1,38.9,30.20,NE,40,7.0,7.0,85,0.00,,,0.02,Wunderground v.1.15,2013-05-24 09:47:00,
2013-05-24 05:57:00,43.0,38.5,30.21,NNE,24,6.0,7.0,84,0.00,,,0.02,Wunderground v.1.15,2013-05-24 09:57:00,
2013-05-24 06:07:00,42.9,37.8,30.21,NE,40,8.0,8.0,82,0.00,,,0.02,Wunderground v.1.15,2013-05-24 10:07:00,
2013-05-24 06:17:00,42.6,37.5,30.21,NE,47,7.0,7.0,82,0.00,,,0.02,Wunderground v.1.15,2013-05-24 10:17:00,
2013-05-24 06:22:00,42.3,36.9,30.21,NE,45,6.0,7.0,81,0.00,,,0.02,Wunderground v.1.15,2013-05-24 10:22:00,
2013-05-24 06:32:00,41.9,37.1,30.21,NE,35,6.0,6.0,83,0.00,,,0.02,Wunderground v.1.15,2013-05-24 10:32:00,
2013-05-24 06:42:00,41.7,36.9,30.22,NE,42,4.0,5.0,83,0.00,,,0.02,Wunderground v.1.15,2013-05-24 10:42:00,
2013-05-24 06:47:00,41.6,37.1,30.22,NE,40,4.0,4.0,84,0.00,,,0.02,Wunderground v.1.15,2013-05-24 10:47:00,
2013-05-24 06:57:00,41.8,37.6,30.23,NE,42,3.0,4.0,85,0.00,,,0.02,Wunderground v.1.15,2013-05-24 10:57:00,
2013-05-24 07:07:00,42.5,37.7,30.23,NNE,28,4.0,4.0,83,0.00,,,0.02,Wunderground v.1.15,2013-05-24 11:07:00,
2013-05-24 07:17:00,43.4,38.3,30.23,North,5,4.0,7.0,82,0.00,,,0.02,Wunderground v.1.15,2013-05-24 11:17:00,
2013-05-24 07:22:00,43.6,38.2,30.24,North,5,6.0,7.0,81,0.00,,,0.02,Wunderground v.1.15,2013-05-24 11:22:00,
2013-05-24 07:32:00,43.6,37.2,30.24,NNE,19,9.0,13.0,78,0.00,,,0.02,Wunderground v.1.15,2013-05-24 11:32:00,
2013-05-24 07:37:00,43.4,37.0,30.24,North,5,10.0,15.0,78,0.00,,,0.02,Wunderground v.1.15,2013-05-24 11:37:00,
2013-05-24 07:47:00,43.2,35.8,30.25,North,9,13.0,14.0,75,0.00,,,0.02,Wunderground v.1.15,2013-05-24 11:47:00,
2013-05-24 07:52:00,43.2,36.1,30.25,North,11,12.0,14.0,76,0.00,,,0.02,Wunderground v.1.15,2013-05-24 11:52:00,
2013-05-24 07:57:00,43.3,35.9,30.25,North,350,11.0,12.0,75,0.00,,,0.02,Wunderground v.1.15,2013-05-24 11:57:00,
2013-05-24 08:07:00,43.2,35.8,30.26,NE,34,11.0,15.0,75,0.00,,,0.02,Wunderground v.1.15,2013-05-24 12:07:00,
2013-05-24 08:12:00,43.8,36.7,30.26,NNE,15,11.0,15.0,76,0.00,,,0.02,Wunderground v.1.15,2013-05-24 12:12:00,
2013-05-24 08:22:00,44.7,36.2,30.27,North,360,12.0,12.0,72,0.00,,,0.02,Wunderground v.1.15,2013-05-24 12:22:00,
2013-05-24 08:27:00,44.6,36.1,30.28,North,5,12.0,12.0,72,0.00,,,0.02,Wunderground v.1.15,2013-05-24 12:27:00,
2013-05-24 08:37:00,44.2,35.7,30.28,North,355,10.0,10.0,72,0.00,,,0.02,Wunderground v.1.15,2013-05-24 12:37:00,
2013-05-24 08:47:00,43.1,35.7,30.28,North,5,8.0,8.0,75,0.00,,,0.02,Wunderground v.1.15,2013-05-24 12:47:00,
2013-05-24 08:57:00,43.2,35.5,30.29,North,355,9.0,9.0,74,0.00,,,0.02,Wunderground v.1.15,2013-05-24 12:57:00,
2013-05-24 09:07:00,43.8,36.4,30.29,NNW,337,9.0,11.0,75,0.00,,,0.02,Wunderground v.1.15,2013-05-24 13:07:00,
2013-05-24 09:17:00,43.3,35.9,30.30,North,351,9.0,14.0,75,0.00,,,0.02,Wunderground v.1.15,2013-05-24 13:17:00,
2013-05-24 09:22:00,43.4,35.0,30.30,North,5,9.0,14.0,72,0.00,,,0.02,Wunderground v.1.15,2013-05-24 13:22:00,
2013-05-24 09:32:00,45.1,36.6,30.30,North,5,11.0,11.0,72,0.00,,,0.02,Wunderground v.1.15,2013-05-24 13:32:00,
2013-05-24 09:37:00,45.5,36.3,30.30,North,360,11.0,11.0,70,0.00,,,0.02,Wunderground v.1.15,2013-05-24 13:37:00,
2013-05-24 09:47:00,46.0,36.4,30.30,North,5,11.0,11.0,69,0.00,,,0.02,Wunderground v.1.15,2013-05-24 13:47:00,
2013-05-24 09:52:00,46.7,38.5,30.30,North,5,10.0,12.0,73,0.00,,,0.02,Wunderground v.1.15,2013-05-24 13:52:00,
2013-05-24 09:57:00,47.1,37.1,30.30,North,355,10.0,11.0,68,0.00,,,0.02,Wunderground v.1.15,2013-05-24 13:57:00,
2013-05-24 10:07:00,45.7,35.7,30.31,NNW,333,12.0,12.0,68,0.00,,,0.02,Wunderground v.1.15,2013-05-24 14:07:00,
2013-05-24 10:17:00,46.5,36.9,30.30,North,5,11.0,11.0,69,0.00,,,0.02,Wunderground v.1.15,2013-05-24 14:17:00,
2013-05-24 10:22:00,47.0,37.0,30.31,North,10,10.0,14.0,68,0.00,,,0.02,Wunderground v.1.15,2013-05-24 14:22:00,
2013-05-24 10:32:00,47.8,37.7,30.31,North,5,11.0,11.0,68,0.00,,,0.02,Wunderground v.1.15,2013-05-24 14:32:00,
2013-05-24 10:37:00,48.5,38.0,30.31,NNE,15,10.0,11.0,67,0.00,,,0.02,Wunderground v.1.15,2013-05-24 14:37:00,
2013-05-24 10:47:00,48.7,37.8,30.31,NW,317,9.0,10.0,66,0.00,,,0.02,Wunderground v.1.15,2013-05-24 14:47:00,
2013-05-24 10:57:00,47.8,37.7,30.31,NW,306,10.0,15.0,68,0.00,,,0.02,Wunderground v.1.15,2013-05-24 14:57:00,
2013-05-24 11:07:00,46.8,36.0,30.31,NNW,344,9.0,9.0,66,0.00,,,0.02,Wunderground v.1.15,2013-05-24 15:07:00,
2013-05-24 11:17:00,47.7,37.3,30.31,NNW,346,10.0,10.0,67,0.00,,,0.02,Wunderground v.1.15,2013-05-24 15:17:00,
2013-05-24 11:27:00,47.2,35.6,30.32,North,355,10.0,10.0,64,0.00,,,0.02,Wunderground v.1.15,2013-05-24 15:27:00,
2013-05-24 11:32:00,47.5,37.5,30.32,NNW,339,9.0,11.0,68,0.00,,,0.02,Wunderground v.1.15,2013-05-24 15:32:00,
2013-05-24 11:42:00,48.9,38.0,30.33,NNW,344,8.0,9.0,66,0.00,,,0.02,Wunderground v.1.15,2013-05-24 15:42:00,
2013-05-24 11:47:00,49.5,37.4,30.32,NNW,330,8.0,8.0,63,0.00,,,0.02,Wunderground v.1.15,2013-05-24 15:47:00,
2013-05-24 11:57:00,50.3,38.2,30.32,North,5,9.0,9.0,63,0.00,,,0.02,Wunderground v.1.15,2013-05-24 15:57:00,
2013-05-24 12:07:00,49.7,36.8,30.33,North,5,9.0,10.0,61,0.00,,,0.02,Wunderground v.1.15,2013-05-24 16:07:00,
2013-05-24 12:12:00,49.4,36.9,30.33,NNW,335,10.0,10.0,62,0.00,,,0.02,Wunderground v.1.15,2013-05-24 16:12:00,
2013-05-24 12:17:00,50.1,37.6,30.32,NNW,346,10.0,10.0,62,0.00,,,0.02,Wunderground v.1.15,2013-05-24 16:17:00,
2013-05-24 12:27:00,51.0,37.2,30.32,NE,39,9.0,9.0,59,0.00,,,0.02,Wunderground v.1.15,2013-05-24 16:27:00,
2013-05-24 12:37:00,50.5,36.3,30.32,NNE,17,9.0,9.0,58,0.00,,,0.02,Wunderground v.1.15,2013-05-24 16:37:00,
2013-05-24 12:47:00,51.3,37.4,30.33,NNW,329,8.0,11.0,59,0.00,,,0.02,Wunderground v.1.15,2013-05-24 16:47:00,
2013-05-24 12:57:00,52.1,37.8,30.33,NNW,338,10.0,10.0,58,0.00,,,0.02,Wunderground v.1.15,2013-05-24 16:57:00,
2013-05-24 13:07:00,51.9,38.0,30.32,NW,325,9.0,16.0,59,0.00,,,0.02,Wunderground v.1.15,2013-05-24 17:07:00,
2013-05-24 13:17:00,52.7,38.3,30.32,North,349,10.0,12.0,58,0.00,,,0.02,Wunderground v.1.15,2013-05-24 17:17:00,
2013-05-24 13:27:00,52.8,38.4,30.33,North,349,11.0,14.0,58,0.00,,,0.02,Wunderground v.1.15,2013-05-24 17:27:00,
2013-05-24 13:32:00,53.3,38.0,30.33,NNE,15,9.0,14.0,56,0.00,,,0.02,Wunderground v.1.15,2013-05-24 17:32:00,
2013-05-24 13:42:00,53.7,38.4,30.32,NNW,348,10.0,10.0,56,0.00,,,0.02,Wunderground v.1.15,2013-05-24 17:42:00,
2013-05-24 13:52:00,54.6,38.7,30.32,NNE,15,9.0,12.0,55,0.00,,,0.02,Wunderground v.1.15,2013-05-24 17:52:00,
2013-05-24 13:57:00,53.5,36.3,30.32,NNE,30,9.0,9.0,52,0.00,,,0.02,Wunderground v.1.15,2013-05-24 17:57:00,
2013-05-24 14:07:00,54.3,39.4,30.32,NNW,339,9.0,9.0,57,0.00,,,0.02,Wunderground v.1.15,2013-05-24 18:07:00,
2013-05-24 14:12:00,54.5,38.7,30.32,NNE,28,8.0,10.0,55,0.00,,,0.02,Wunderground v.1.15,2013-05-24 18:12:00,
2013-05-24 14:22:00,54.0,38.2,30.32,NW,316,8.0,8.0,55,0.00,,,0.02,Wunderground v.1.15,2013-05-24 18:22:00,
2013-05-24 14:27:00,54.6,39.2,30.32,NNE,12,9.0,9.0,56,0.00,,,0.02,Wunderground v.1.15,2013-05-24 18:27:00,
2013-05-24 14:37:00,55.1,38.7,30.31,WNW,303,8.0,8.0,54,0.00,,,0.02,Wunderground v.1.15,2013-05-24 18:37:00,
2013-05-24 14:47:00,55.4,39.0,30.32,NNW,336,9.0,9.0,54,0.00,,,0.02,Wunderground v.1.15,2013-05-24 18:47:00,
2013-05-24 14:52:00,55.4,37.6,30.31,NNE,17,9.0,9.0,51,0.00,,,0.02,Wunderground v.1.15,2013-05-24 18:52:00,
2013-05-24 14:57:00,55.3,38.0,30.32,NW,325,10.0,13.0,52,0.00,,,0.02,Wunderground v.1.15,2013-05-24 18:57:00,
2013-05-24 15:07:00,55.6,37.7,30.31,NW,309,8.0,8.0,51,0.00,,,0.02,Wunderground v.1.15,2013-05-24 19:07:00,
2013-05-24 15:12:00,55.3,38.0,30.32,NNW,342,7.0,8.0,52,0.00,,,0.02,Wunderground v.1.15,2013-05-24 19:12:00,
2013-05-24 15:22:00,55.8,38.9,30.32,NNW,333,9.0,13.0,53,0.00,,,0.02,Wunderground v.1.15,2013-05-24 19:22:00,
2013-05-24 15:32:00,55.9,38.5,30.32,NNW,345,9.0,10.0,52,0.00,,,0.02,Wunderground v.1.15,2013-05-24 19:32:00,
2013-05-24 15:42:00,56.5,38.6,30.32,NNW,330,8.0,10.0,51,0.00,,,0.02,Wunderground v.1.15,2013-05-24 19:42:00,
2013-05-24 15:52:00,57.1,38.1,30.32,North,5,10.0,10.0,49,0.00,,,0.02,Wunderground v.1.15,2013-05-24 19:52:00,
2013-05-24 15:57:00,57.0,37.5,30.31,NNW,329,9.0,9.0,48,0.00,,,0.02,Wunderground v.1.15,2013-05-24 19:57:00,
2013-05-24 16:07:00,57.3,38.3,30.32,NNW,342,10.0,10.0,49,0.00,,,0.02,Wunderground v.1.15,2013-05-24 20:07:00,
2013-05-24 16:17:00,57.4,37.3,30.32,North,355,11.0,11.0,47,0.00,,,0.02,Wunderground v.1.15,2013-05-24 20:17:00,
2013-05-24 16:27:00,57.1,37.6,30.32,NNW,331,10.0,10.0,48,0.00,,,0.02,Wunderground v.1.15,2013-05-24 20:27:00,
2013-05-24 16:32:00,57.2,38.2,30.32,NNW,333,8.0,12.0,49,0.00,,,0.02,Wunderground v.1.15,2013-05-24 20:32:00,
2013-05-24 16:42:00,58.0,37.9,30.32,NNW,331,10.0,10.0,47,0.00,,,0.02,Wunderground v.1.15,2013-05-24 20:42:00,
2013-05-24 16:52:00,58.0,37.3,30.31,WNW,302,10.0,11.0,46,0.00,,,0.02,Wunderground v.1.15,2013-05-24 20:52:00,
2013-05-24 16:57:00,58.2,38.1,30.31,North,355,10.0,10.0,47,0.00,,,0.02,Wunderground v.1.15,2013-05-24 20:57:00,
2013-05-24 17:07:00,57.8,37.7,30.31,North,355,11.0,11.0,47,0.00,,,0.02,Wunderground v.1.15,2013-05-24 21:07:00,
2013-05-24 17:17:00,57.8,37.7,30.31,North,350,9.0,9.0,47,0.00,,,0.02,Wunderground v.1.15,2013-05-24 21:17:00,
2013-05-24 17:27:00,57.7,38.1,30.31,NNE,16,8.0,12.0,48,0.00,,,0.02,Wunderground v.1.15,2013-05-24 21:27:00,
2013-05-24 17:37:00,57.8,37.7,30.30,North,360,8.0,9.0,47,0.00,,,0.02,Wunderground v.1.15,2013-05-24 21:37:00,
2013-05-24 17:47:00,57.8,38.2,30.30,NNW,344,9.0,9.0,48,0.00,,,0.02,Wunderground v.1.15,2013-05-24 21:47:00,
2013-05-24 17:57:00,58.0,37.9,30.30,NNW,344,9.0,11.0,47,0.00,,,0.02,Wunderground v.1.15,2013-05-24 21:57:00,
2013-05-24 18:07:00,58.2,37.5,30.30,NNW,334,9.0,13.0,46,0.00,,,0.02,Wunderground v.1.15,2013-05-24 22:07:00,
2013-05-24 18:12:00,58.2,38.1,30.30,NNW,330,9.0,13.0,47,0.00,,,0.02,Wunderground v.1.15,2013-05-24 22:12:00,
2013-05-24 18:22:00,58.1,37.4,30.30,North,360,8.0,10.0,46,0.00,,,0.02,Wunderground v.1.15,2013-05-24 22:22:00,
2013-05-24 18:27:00,57.9,37.2,30.30,NNW,332,9.0,9.0,46,0.00,,,0.02,Wunderground v.1.15,2013-05-24 22:27:00,
2013-05-24 18:37:00,57.8,37.1,30.30,NW,322,8.0,9.0,46,0.00,,,0.02,Wunderground v.1.15,2013-05-24 22:37:00,
2013-05-24 18:47:00,57.0,37.5,30.29,North,360,8.0,9.0,48,0.00,,,0.02,Wunderground v.1.15,2013-05-24 22:47:00,
2013-05-24 18:57:00,56.7,37.7,30.29,NNE,28,8.0,8.0,49,0.00,,,0.02,Wunderground v.1.15,2013-05-24 22:57:00,
2013-05-24 19:07:00,56.4,37.5,30.29,NNE,23,8.0,8.0,49,0.00,,,0.02,Wunderground v.1.15,2013-05-24 23:07:00,
2013-05-24 19:17:00,56.5,37.6,30.29,NNE,22,6.0,7.0,49,0.00,,,0.02,Wunderground v.1.15,2013-05-24 23:17:00,
2013-05-24 19:27:00,56.2,37.3,30.29,NNE,15,8.0,8.0,49,0.00,,,0.02,Wunderground v.1.15,2013-05-24 23:27:00,
2013-05-24 19:37:00,56.1,37.2,30.29,North,355,7.0,9.0,49,0.00,,,0.02,Wunderground v.1.15,2013-05-24 23:37:00,
2013-05-24 19:47:00,55.5,36.6,30.29,NNE,27,7.0,9.0,49,0.00,,,0.02,Wunderground v.1.15,2013-05-24 23:47:00,
2013-05-24 19:52:00,55.0,37.2,30.29,North,5,7.0,9.0,51,0.00,,,0.02,Wunderground v.1.15,2013-05-24 23:52:00,
2013-05-24 19:57:00,54.9,37.1,30.29,North,10,7.0,7.0,51,0.00,,,0.02,Wunderground v.1.15,2013-05-24 23:57:00,
2013-05-24 20:07:00,54.2,36.5,30.29,NNE,27,6.0,8.0,51,0.00,,,0.02,Wunderground v.1.15,2013-05-25 00:07:00,
2013-05-24 20:17:00,53.7,36.5,30.28,NNE,26,7.0,7.0,52,0.00,,,0.02,Wunderground v.1.15,2013-05-25 00:17:00,
2013-05-24 20:27:00,53.0,36.3,30.28,NNE,24,6.0,7.0,53,0.00,,,0.02,Wunderground v.1.15,2013-05-25 00:27:00,
2013-05-24 20:37:00,52.3,36.6,30.28,NE,36,5.0,6.0,55,0.00,,,0.02,Wunderground v.1.15,2013-05-25 00:37:00,
2013-05-24 20:47:00,51.5,36.8,30.28,NNE,28,5.0,5.0,57,0.00,,,0.02,Wunderground v.1.15,2013-05-25 00:47:00,
2013-05-24 20:52:00,50.9,37.1,30.28,NNE,28,5.0,5.0,59,0.00,,,0.02,Wunderground v.1.15,2013-05-25 00:52:00,
2013-05-24 20:57:00,50.3,36.9,30.28,NNE,29,5.0,6.0,60,0.00,,,0.02,Wunderground v.1.15,2013-05-25 00:57:00,
2013-05-24 21:07:00,49.6,36.7,30.28,NE,40,5.0,5.0,61,0.00,,,0.02,Wunderground v.1.15,2013-05-25 01:07:00,
2013-05-24 21:17:00,49.0,36.5,30.28,NNE,33,4.0,4.0,62,0.00,,,0.02,Wunderground v.1.15,2013-05-25 01:17:00,
2013-05-24 21:22:00,48.7,36.7,30.28,NE,38,4.0,4.0,63,0.00,,,0.02,Wunderground v.1.15,2013-05-25 01:22:00,
2013-05-24 21:32:00,48.5,36.9,30.28,NE,45,4.0,5.0,64,0.00,,,0.02,Wunderground v.1.15,2013-05-25 01:32:00,
2013-05-24 21:42:00,48.1,36.5,30.29,NE,38,3.0,4.0,64,0.00,,,0.03,Wunderground v.1.15,2013-05-25 01:42:00,
2013-05-24 21:47:00,47.9,36.3,30.29,NE,38,3.0,3.0,64,0.00,,,0.03,Wunderground v.1.15,2013-05-25 01:47:00,
2013-05-24 21:57:00,47.5,36.3,30.29,NE,38,2.0,2.0,65,0.00,,,0.03,Wunderground v.1.15,2013-05-25 01:57:00,
2013-05-24 22:07:00,46.8,36.4,30.30,NE,38,1.0,1.0,67,0.00,,,0.03,Wunderground v.1.15,2013-05-25 02:07:00,
2013-05-24 22:17:00,46.1,36.5,30.30,NE,38,1.0,1.0,69,0.00,,,0.03,Wunderground v.1.15,2013-05-25 02:17:00,
2013-05-24 22:27:00,45.4,36.5,30.30,NE,38,2.0,2.0,71,0.00,,,0.03,Wunderground v.1.15,2013-05-25 02:27:00,
2013-05-24 22:37:00,44.9,36.4,30.31,NE,38,1.0,1.0,72,0.00,,,0.03,Wunderground v.1.15,2013-05-25 02:37:00,
2013-05-24 22:47:00,44.4,36.3,30.31,NE,38,0.0,0.0,73,0.00,,,0.03,Wunderground v.1.15,2013-05-25 02:47:00,
2013-05-24 22:52:00,44.2,36.4,30.31,NE,36,1.0,3.0,74,0.00,,,0.03,Wunderground v.1.15,2013-05-25 02:52:00,
2013-05-24 22:57:00,43.9,36.1,30.31,NNE,17,2.0,2.0,74,0.00,,,0.03,Wunderground v.1.15,2013-05-25 02:57:00,
2013-05-24 23:07:00,44.2,36.1,30.32,NNE,17,0.0,1.0,73,0.00,,,0.03,Wunderground v.1.15,2013-05-25 03:07:00,
2013-05-24 23:12:00,44.3,36.5,30.32,NNE,17,1.0,1.0,74,0.00,,,0.03,Wunderground v.1.15,2013-05-25 03:12:00,
2013-05-24 23:22:00,43.3,36.6,30.32,SSW,207,1.0,1.0,77,0.00,,,0.03,Wunderground v.1.15,2013-05-25 03:22:00,
2013-05-24 23:27:00,43.1,36.7,30.32,SSW,207,1.0,1.0,78,0.00,,,0.03,Wunderground v.1.15,2013-05-25 03:27:00,
2013-05-24 23:37:00,43.1,36.7,30.33,SSW,207,1.0,2.0,78,0.00,,,0.03,Wunderground v.1.15,2013-05-25 03:37:00,
2013-05-24 23:47:00,42.8,37.1,30.32,SSW,207,0.0,1.0,80,0.00,,,0.03,Wunderground v.1.15,2013-05-25 03:47:00,
2013-05-24 23:57:00,42.5,36.8,30.32,SSW,207,1.0,1.0,80,0.00,,,0.03,Wunderground v.1.15,2013-05-25 03:57:00,